SCP
0 0 0 0 0 0 0 0 0 0 0 0 0 0 0 0 0 0 0 0 0 0 0 0 0 0 0 0 0 0 0 0 0 0 0 0 0 0 0 0 0 0 0
0 0 0 0 0 0 0 0 0 0 0 0 0 0 0 0 0 0 0 0 0 0 0 0 0 0 0 0 0 0 0 0 0 0 0 0 0 0 0 0 0 0 0
0 0 0 0 0 0 0 0 0 0 0 0 0 0 0 0 0 0 0 0 0 0 0 0 0 0 0 0 0 0 0 0 0 0 0 0 0 0 0 0 0 0 0
0 0 0 0 0 0 0 0 0 0 0 0 0 0 0 0 0 0 0 0 0 0 0 0 0 0 0 0 0 0 0 0 0 0 0 0 0 0 0 0 0 0 0
0 0 0 0 0 0 0 0 0 0 0 0 0 0 0 0 0 0 0 0 0 0 0 0 0 0 0 0 0 0 0 0 0 0 0 0 0 0 0 0 0 0 0
0 0 0 0 0 0 0 0 0 0 0 0 0 0 0 0 0 0 0 0 0 0 0 0 0 0 0 0 0 0 0 0 0 0 0 0 0 0 0 0 0 0 0
0 0 0 0 0 0 0 0 0 0 0 0 0 0 0 0 0 0 0 0 0 0 0 0 0 0 0 0 0 0 0 0 0 0 0 0 0 0 0 0 0 0 0
0 0 0 0 0 0 0 0 0 0 0 0 0 0 0 0 0 0 0 0 0 0 0 0 0 0 0 0 0 0 0 0 0 0 0 0 0 0 0 0 0 0 0
0 0 0 0 0 0 0 0 0 0 0 0 0 0 0 0 0 0 0 0 0 0 0 0 0 0 0 0 0 0 0 0 0 0 0 0 0 0 0 0 0 0 0
0 0 0 0 0 0 0 0 0 0 0 0 0 0 0 0 0 0 0 0 0 0 0 0 0 0 0 0 0 0 0 0 0 0 0 0 0 0 0 0 0 0 0
0 0 0 0 0 0 0 0 0 0 0 0 0 0 0 0 0 0 0 0 0 0 0 0 0 0 0 0 0 0 0 0 0 0 0 0 0 0 0 0 0 0 0
0 0 0 0 0 0 0 0 0 0 0 0 0 0 0 0 0 0 0 0 0 0 0 0 0 0 0 0 0 0 0 0 0 0 0 0 0 0 0 0 0 0 0
0 0 0 0 0 0 0 0 0 0 0 0 0 0 0 0 0 0 0 0 0 0 0 0 0 0 0 0 0 0 0 0 0 0 0 0 0 0 0 0 0 0 0
0 0 0 0 0 0 0 0 0 0 0 0 0 0 0 0 0 0 0 0 0 0 0 0 0 0 0 0 0 0 0 0 0 0 0 0 0 0 0 0 0 0 0
0 0 0 0 0 0 0 0 0 0 0 0 0 0 0 0 0 0 0 0 0 0 0 0 0 0 0 0 0 0 0 0 0 0 0 0 0 0 0 0 0 0 0
0 0 0 0 0 0 0 0 0 0 0 0 0 0 0 0 0 0 0 0 0 0 0 0 0 0 0 0 0 0 0 0 0 0 0 0 0 0 0 0 0 0 0
0 0 0 0 0 0 0 0 0 0 0 0 0 0 0 0 0 0 0 0 0 0 0 0 0 0 0 0 0 0 0 0 0 0 0 0 0 0 0 0 0 0 0
0 0 0 0 0 0 0 0 0 0 0 0 0 0 0 0 0 0 0 0 0 0 0 0 0 0 0 0 0 0 0 0 0 0 0 0 0 0 0 0 0 0 0
0 0 0 0 0 0 0 0 0 0 0 0 0 0 0 0 0 0 0 0 0 0 0 0 0 0 0 0 0 0 0 0 0 0 0 0 0 0 0 0 0 0 0
0 0 0 0 0 0 0 0 0 0 0 0 0 0 0 0 0 0 0 0 0 0 0 0 0 0 0 0 0 0 0 0 0 0 0 0 0 0 0 0 0 0 0
0 0 0 0 0 0 0 0 0 0 0 0 0 0 0 0 0 0 0 0 0 0 0 0 0 0 0 0 0 0 0 0 0 0 0 0 0 0 0 0 0 0 0
0 0 0 0 0 0 0 0 0 0 0 0 0 0 0 0 0 0 0 0 0 0 0 0 0 0 0 0 0 0 0 0 0 0 0 0 0 0 0 0 0 0 0
0 0 0 0 0 0 0 0 0 0 0 0 0 0 0 0 0 0 0 0 0 0 0 0 0 0 0 0 0 0 0 0 0 0 0 0 0 0 0 0 0 0 0
0 0 0 0 0 0 0 0 0 0 0 0 0 0 0 0 0 0 0 0 0 0 0 0 0 0 0 0 0 0 0 0 0 0 0 0 0 0 0 0 0 0 0
0 0 0 0 0 0 0 0 0 0 0 0 0 0 0 0 0 0 0 0 0 0 0 0 0 0 0 0 0 0 0 0 0 0 0 0 0 0 0 0 0 0 0
0 0 0 0 0 0 0 0 0 0 0 0 0 0 0 0 0 0 0 0 0 0 0 0 0 0 0 0 0 0 0 0 0 0 0 0 0 0 0 0 0 0 0
Wind_Speed
6 6 6 6 5 4 4 4 4 3 2 2 2 2 2 3 3 3 3 2 2 2 1 2 2 2 2 3 3 2 3 3 2 2 3 4 5 6 7 7 7 9 10
5 6 7 6 6 5 5 5 4 3 2 2 1 1 1 2 1 2 3 3 3 4 3 3 3 2 2 3 3 2 2 2 2 1 2 2 2 5 8 7 8 9 8
9 8 7 7 6 6 6 6 5 4 3 2 1 1 2 3 3 3 3 4 5 5 5 5 4 3 2 2 3 2 2 3 2 2 2 2 2 2 3 6 7 7 7
8 7 7 7 7 6 5 5 5 4 3 3 2 2 1 1 3 2 3 5 5 6 5 5 4 3 3 3 3 2 2 2 3 2 2 3 2 2 3 2 4 6 7
9 8 7 6 5 4 4 4 4 3 3 3 3 2 1 2 3 3 4 5 5 5 5 4 3 3 3 3 3 2 2 2 2 2 2 2 2 3 2 3 2 2 4
6 4 3 3 2 3 3 4 4 2 2 2 2 2 3 3 3 4 4 4 3 4 6 5 3 3 3 4 4 4 3 3 3 2 2 2 2 2 1 2 2 3 3
4 4 4 3 3 4 3 3 3 2 2 1 2 3 3 3 3 4 3 3 3 3 5 5 3 3 4 4 4 4 4 4 4 3 3 3 3 2 2 2 2 3 3
4 5 5 5 4 4 3 3 2 2 2 2 3 3 3 2 3 4 3 4 3 4 5 5 4 5 5 5 4 4 4 4 4 5 4 3 3 2 2 2 2 2 2
6 6 5 5 4 3 2 3 2 2 3 3 3 3 3 3 4 4 4 4 4 4 5 5 5 5 5 5 5 4 5 5 5 5 5 3 3 3 3 2 2 2 2
5 5 4 4 3 3 2 2 2 3 3 4 3 3 3 4 4 4 5 5 5 5 5 6 6 6 6 5 5 5 5 5 6 5 5 5 3 3 3 2 3 3 3
6 5 4 3 3 2 2 2 2 3 3 4 4 4 4 5 5 5 6 6 5 6 6 6 6 6 7 6 5 6 6 6 6 6 6 7 5 4 3 3 3 3 2
5 4 4 3 2 2 2 3 4 4 4 4 4 4 5 5 5 6 6 6 6 6 6 7 7 7 7 7 6 7 7 6 7 7 7 7 6 6 4 3 3 3 3
5 3 2 2 3 3 4 4 5 5 5 4 4 4 5 5 6 6 7 6 6 7 7 7 7 8 8 8 8 8 8 8 8 7 7 8 7 7 5 5 4 3 3
5 4 2 3 4 4 5 5 5 5 5 4 4 5 6 6 6 7 6 7 7 7 7 7 8 8 8 8 9 8 8 8 8 8 7 8 8 8 7 6 6 4 4
4 4 3 3 4 4 5 5 5 4 4 4 5 6 6 6 6 6 7 7 7 8 7 7 8 8 7 8 9 8 9 8 8 8 7 8 11 13 10 7 6 6 4
4 3 2 3 4 4 5 4 4 5 4 4 5 6 6 6 6 6 7 7 7 7 7 8 8 9 9 11 14 11 8 7 8 8 7 8 10 13 15 15 13 11 7
4 3 3 4 4 5 4 4 4 4 4 5 5 5 5 6 7 7 7 7 8 7 8 8 8 9 11 15 16 17 10 9 8 8 7 9 9 9 7 10 14 13 14
5 4 4 4 4 3 3 3 3 4 4 5 5 5 6 7 7 7 8 8 7 7 8 9 9 9 11 14 15 17 11 9 9 9 9 9 8 8 7 6 7 7 8
5 5 4 4 3 4 3 3 4 4 5 5 5 6 6 7 8 8 9 8 7 8 8 8 9 9 11 14 15 14 7 7 9 9 9 9 9 11 12 8 7 6 6
4 3 3 2 2 4 3 2 4 5 5 6 6 6 7 7 8 9 9 8 7 8 8 8 8 8 9 12 14 12 5 6 6 6 7 12 11 11 12 9 8 8 7
4 3 2 1 3 4 2 3 4 5 5 5 6 7 7 7 9 8 7 8 8 8 8 8 8 7 8 10 12 10 5 6 6 5 5 6 11 12 13 11 8 9 7
4 3 2 2 4 3 2 4 5 5 5 5 6 7 8 8 8 8 9 8 7 7 7 7 7 5 5 6 7 8 7 6 5 5 4 4 9 11 12 10 9 10 8
4 3 3 3 4 3 3 4 5 4 4 5 7 8 8 8 7 7 9 8 6 5 6 5 5 5 4 5 7 7 6 6 4 4 5 5 6 6 7 10 11 8 5
4 3 2 2 4 4 4 4 4 4 4 5 7 7 8 8 8 6 6 6 6 5 5 5 5 4 4 3 4 4 4 4 3 2 2 2 3 2 3 4 5 4 5
5 4 4 4 5 5 4 4 3 3 4 6 6 7 7 7 8 7 6 7 6 6 6 5 4 4 4 4 5 4 3 2 2 1 1 1 1 2 2 2 3 3 3
5 4 4 4 4 4 4 4 3 3 4 5 6 6 6 6 6 7 8 9 8 10 10 9 7 5 7 7 7 6 6 5 3 1 1 2 3 3 4 4 3 4 4
Wind_Direction
173 170 172 169 165 164 153 148 138 129 102 69 54 30 353 334 337 329 316 312 301 296 288 286 291 294 281 281 284 279 284 277 265 270 273 251 232 231 231 226 223 224 223
188 190 191 189 185 183 176 168 165 158 145 139 146 165 231 291 298 332 340 323 308 296 288 266 263 265 270 294 295 277 282 279 270 262 276 275 255 237 235 228 224 224 220
197 202 198 195 191 194 189 179 176 167 164 147 105 36 17 354 352 342 327 316 308 297 287 271 256 245 230 251 267 261 266 280 286 257 243 254 253 271 248 228 227 219 214
202 207 205 198 197 199 185 173 170 165 167 153 140 150 177 268 266 271 287 303 309 309 304 292 273 247 231 238 255 248 240 262 283 290 264 253 258 262 293 280 235 224 217
202 205 204 194 190 178 164 160 155 163 175 171 171 178 228 243 266 291 310 313 317 323 327 316 294 265 248 247 253 256 252 237 248 262 279 282 269 241 246 286 296 270 234
195 186 168 144 131 116 121 134 143 170 196 196 206 214 245 262 285 303 309 310 312 316 323 325 319 296 274 259 256 252 255 251 251 252 249 254 273 275 254 266 284 274 260
166 151 137 115 109 110 116 129 143 182 224 226 253 258 257 256 261 272 276 284 294 299 302 315 315 306 285 272 262 261 261 252 251 251 247 242 245 255 257 253 270 272 276
137 132 130 127 129 129 128 138 154 200 244 256 268 272 272 252 251 255 255 264 264 268 279 292 295 297 295 289 270 261 261 255 249 254 252 249 251 246 241 247 260 285 286
136 136 139 142 144 138 149 162 170 219 257 263 269 275 268 256 260 268 267 267 267 274 283 287 292 293 293 290 284 265 261 259 252 249 248 246 249 247 244 237 229 237 260
145 143 151 158 163 166 175 181 192 225 250 262 261 254 256 260 264 270 276 275 275 277 286 286 284 285 286 283 279 273 265 258 255 248 245 245 241 244 244 242 237 225 225
161 166 169 172 176 182 195 220 244 260 271 266 257 262 265 265 268 266 267 267 268 271 272 273 276 278 278 278 276 273 274 265 261 258 247 243 235 231 233 230 233 235 219
170 173 176 184 203 229 249 253 258 262 257 252 252 257 263 268 269 267 266 263 263 264 263 265 266 268 272 269 267 269 275 266 263 258 251 248 242 230 226 220 224 228 226
174 177 190 218 240 250 258 260 260 259 258 256 260 270 272 270 267 266 266 264 261 262 264 261 260 262 265 265 263 259 260 258 256 252 246 244 235 232 225 217 220 223 231
179 185 215 249 257 258 260 265 269 265 262 261 268 274 272 268 266 266 267 266 263 262 262 259 255 255 257 259 261 261 260 258 256 250 244 240 229 225 222 218 216 213 215
177 183 206 241 259 266 273 274 273 271 267 270 275 274 273 274 273 275 274 273 270 271 264 261 259 255 256 258 256 253 258 257 258 257 250 245 241 233 220 211 205 200 205
178 184 207 247 267 270 272 278 276 274 271 276 279 280 285 287 286 283 280 277 275 272 270 265 261 260 264 265 262 257 254 251 251 254 253 256 258 249 232 222 209 195 194
186 201 231 248 260 262 262 266 269 276 286 287 289 292 295 294 288 290 291 283 279 274 273 269 263 260 259 259 259 259 254 243 242 243 244 256 255 242 228 228 224 214 207
195 221 239 253 259 261 267 272 283 292 293 296 298 301 300 296 294 292 288 284 278 275 273 273 268 265 267 263 257 256 253 242 238 236 234 235 242 244 225 217 215 211 210
198 213 224 229 252 269 272 288 302 301 301 300 301 299 298 298 301 299 293 288 283 281 276 273 272 269 272 269 264 260 247 240 239 238 236 230 229 234 225 211 207 209 220
194 204 219 232 275 277 275 295 300 301 296 293 293 294 294 297 298 295 290 287 281 279 282 282 276 271 273 275 273 265 240 239 242 240 238 237 231 228 219 205 197 202 210
187 180 184 248 271 274 276 292 295 287 281 288 295 297 297 297 294 290 287 289 288 287 286 285 285 281 279 285 284 275 239 232 235 234 234 235 232 228 219 204 197 205 195
181 176 189 263 277 276 271 286 285 276 284 295 300 299 300 303 308 299 297 294 290 289 290 290 293 291 292 294 298 292 262 234 225 230 232 235 236 227 215 203 202 205 191
192 197 202 259 284 278 260 269 272 278 294 305 306 303 305 304 298 295 297 300 295 288 289 289 290 297 301 306 316 312 289 256 236 236 237 232 228 210 199 199 194 188 179
198 197 206 256 279 276 270 253 264 278 296 304 304 304 307 308 305 300 293 292 292 289 286 286 286 293 299 304 320 322 309 284 259 256 259 225 190 170 169 175 182 178 181
200 192 202 234 260 272 271 265 265 282 301 303 302 305 303 301 305 304 295 290 279 265 264 267 260 271 288 286 300 301 301 286 256 232 194 155 148 162 175 171 172 175 176
189 193 210 232 257 266 263 264 256 268 295 303 306 305 305 305 304 306 310 302 287 285 272 253 245 249 252 279 294 298 299 300 279 229 206 203 195 191 188 183 183 187 191